DAL2847 KMSP-KCLE

Flight info

Callsign DAL2847
Flight time 1h 22m
Altitude 37000
Route COULT7 DLL J34 BAE HASTE BRWNZ4
Aircraft A320/M-SDE3FGHIRWY/LB1

Departure

Time 2026-05-05 04:13
Airport Minneapolis–Saint Paul International Airport / Wold–Chamberlain Field (KMSP)

Arrival

Time 2026-05-05 05:35
Airport Cleveland Hopkins International Airport (KCLE)
Time Latitude Longitude Altitude Speed Heading
2026-05-05 03:40 44.88027 -93.20940 835 ft 0 kts 31°
2026-05-05 03:59 44.88007 -93.20957 828 ft 4 kts 32°
2026-05-05 03:59 44.87991 -93.20970 830 ft 4 kts 27°
2026-05-05 03:59 44.87967 -93.20984 831 ft 4 kts
2026-05-05 03:59 44.87943 -93.20980 834 ft 4 kts 317°
2026-05-05 04:00 44.87936 -93.20968 835 ft 1 kts 302°
2026-05-05 04:00 44.87935 -93.20967 835 ft 0 kts 302°
2026-05-05 04:01 44.87936 -93.20967 835 ft 0 kts 302°
2026-05-05 04:04 44.87943 -93.20985 832 ft 8 kts 302°
2026-05-05 04:04 44.87988 -93.21090 833 ft 15 kts 301°
2026-05-05 04:05 44.88013 -93.21231 834 ft 16 kts 269°
2026-05-05 04:05 44.88045 -93.21381 832 ft 18 kts 305°
2026-05-05 04:05 44.88139 -93.21486 834 ft 17 kts 334°
2026-05-05 04:05 44.88205 -93.21615 835 ft 17 kts 296°
2026-05-05 04:06 44.88271 -93.21745 833 ft 16 kts 300°
2026-05-05 04:06 44.88347 -93.21837 836 ft 15 kts 351°
2026-05-05 04:06 44.88435 -93.21767 839 ft 14 kts 48°
2026-05-05 04:06 44.88497 -93.21682 840 ft 10 kts 44°
2026-05-05 04:07 44.88542 -93.21621 839 ft 9 kts 44°
2026-05-05 04:07 44.88610 -93.21521 843 ft 19 kts 41°
2026-05-05 04:07 44.88720 -93.21370 841 ft 22 kts 45°
2026-05-05 04:07 44.88781 -93.21202 832 ft 17 kts 120°
2026-05-05 04:08 44.88720 -93.21062 836 ft 17 kts 121°
2026-05-05 04:08 44.88657 -93.20921 833 ft 16 kts 121°
2026-05-05 04:08 44.88601 -93.20792 833 ft 15 kts 120°
2026-05-05 04:08 44.88548 -93.20665 832 ft 15 kts 121°
2026-05-05 04:09 44.88495 -93.20547 832 ft 16 kts 122°
2026-05-05 04:09 44.88427 -93.20385 832 ft 22 kts 120°
2026-05-05 04:09 44.88360 -93.20232 829 ft 16 kts 120°
2026-05-05 04:09 44.88298 -93.20093 827 ft 20 kts 123°
2026-05-05 04:10 44.88215 -93.19899 828 ft 27 kts 121°
2026-05-05 04:10 44.88130 -93.19706 825 ft 7 kts 122°
2026-05-05 04:10 44.88106 -93.19649 824 ft 9 kts 121°
2026-05-05 04:10 44.88065 -93.19551 824 ft 8 kts 116°
2026-05-05 04:11 44.88062 -93.19535 822 ft 1 kts 108°
2026-05-05 04:11 44.88068 -93.19483 823 ft 6 kts 60°
2026-05-05 04:11 44.88119 -93.19460 825 ft 12 kts 349°
2026-05-05 04:11 44.88173 -93.19516 826 ft 7 kts 314°
2026-05-05 04:12 44.88192 -93.19555 826 ft 0 kts 301°
2026-05-05 04:12 44.88254 -93.19701 828 ft 49 kts 301°
2026-05-05 04:12 44.88543 -93.20364 833 ft 109 kts 301°
2026-05-05 04:12 44.89024 -93.21483 851 ft 154 kts 300°
2026-05-05 04:13 44.89604 -93.22799 1354 ft 159 kts 300°
2026-05-05 04:13 44.90151 -93.24141 2107 ft 158 kts 303°
2026-05-05 04:13 44.90713 -93.25494 2725 ft 165 kts 302°
2026-05-05 04:13 44.91333 -93.26962 3091 ft 182 kts 302°
2026-05-05 04:14 44.92114 -93.28504 3404 ft 205 kts 319°
2026-05-05 04:14 44.93486 -93.29327 3760 ft 234 kts 354°
2026-05-05 04:14 44.95108 -93.28648 4373 ft 260 kts 32°
2026-05-05 04:14 44.96226 -93.26561 5149 ft 281 kts 66°
2026-05-05 04:15 44.96376 -93.23761 5924 ft 297 kts 101°
2026-05-05 04:15 44.95551 -93.21058 6662 ft 305 kts 123°
2026-05-05 04:15 44.94314 -93.18625 7502 ft 306 kts 129°
2026-05-05 04:15 44.92995 -93.16254 8336 ft 309 kts 130°
2026-05-05 04:16 44.91653 -93.13850 9136 ft 314 kts 130°
2026-05-05 04:16 44.90359 -93.11338 9895 ft 319 kts 123°
2026-05-05 04:16 44.89214 -93.08601 10449 ft 333 kts 120°
2026-05-05 04:16 44.88097 -93.05607 10643 ft 356 kts 118°
2026-05-05 04:17 44.86970 -93.02439 11195 ft 365 kts 118°
2026-05-05 04:17 44.85822 -92.99215 11880 ft 370 kts 118°
2026-05-05 04:17 44.84641 -92.95965 12589 ft 374 kts 120°
2026-05-05 04:17 44.83425 -92.92696 13297 ft 378 kts 121°
2026-05-05 04:18 44.82181 -92.89406 13937 ft 383 kts 121°
2026-05-05 04:18 44.80906 -92.86079 14475 ft 389 kts 122°
2026-05-05 04:18 44.79604 -92.82707 14991 ft 396 kts 123°
2026-05-05 04:18 44.78279 -92.79273 15501 ft 402 kts 123°
2026-05-05 04:19 44.76934 -92.75779 16007 ft 409 kts 123°
2026-05-05 04:19 44.75569 -92.72230 16511 ft 416 kts 123°
2026-05-05 04:19 44.74181 -92.68628 17012 ft 422 kts 124°
2026-05-05 04:19 44.72771 -92.64971 17527 ft 428 kts 124°
2026-05-05 04:20 44.71345 -92.61266 18046 ft 434 kts 125°
2026-05-05 04:20 44.69897 -92.57511 18499 ft 439 kts 125°
2026-05-05 04:20 44.68430 -92.53715 18978 ft 444 kts 125°
2026-05-05 04:20 44.66949 -92.49886 19457 ft 448 kts 125°
2026-05-05 04:21 44.65452 -92.46026 19919 ft 453 kts 126°
2026-05-05 04:21 44.63937 -92.42124 20402 ft 457 kts 126°
2026-05-05 04:21 44.62411 -92.38189 20881 ft 461 kts 126°
2026-05-05 04:21 44.60870 -92.34221 21356 ft 465 kts 126°
2026-05-05 04:22 44.59311 -92.30217 21832 ft 470 kts 126°
2026-05-05 04:22 44.57738 -92.26185 22296 ft 472 kts 126°
2026-05-05 04:22 44.56154 -92.22137 22757 ft 475 kts 127°
2026-05-05 04:22 44.54350 -92.18286 23219 ft 471 kts 134°
2026-05-05 04:23 44.52418 -92.14557 23625 ft 474 kts 135°
2026-05-05 04:23 44.50472 -92.10814 24004 ft 477 kts 135°
2026-05-05 04:23 44.48519 -92.07053 24395 ft 480 kts 135°
2026-05-05 04:23 44.46574 -92.03303 24774 ft 482 kts 134°
2026-05-05 04:24 44.44600 -91.99498 25151 ft 484 kts 134°
2026-05-05 04:24 44.42616 -91.95676 25518 ft 487 kts 134°
2026-05-05 04:24 44.40618 -91.91840 25887 ft 488 kts 135°
2026-05-05 04:25 44.36699 -91.84041 26600 ft 498 kts 127°
2026-05-05 04:25 44.35047 -91.79762 26943 ft 502 kts 124°
2026-05-05 04:25 44.33408 -91.75431 27308 ft 505 kts 124°
2026-05-05 04:25 44.31766 -91.71090 27650 ft 507 kts 124°
2026-05-05 04:26 44.30119 -91.66730 27972 ft 509 kts 124°
2026-05-05 04:26 44.28458 -91.62350 28291 ft 511 kts 124°
2026-05-05 04:26 44.26786 -91.57966 28610 ft 513 kts 125°
2026-05-05 04:26 44.25098 -91.53567 28917 ft 515 kts 125°
2026-05-05 04:27 44.23401 -91.49160 29195 ft 517 kts 125°
2026-05-05 04:27 44.21696 -91.44737 29506 ft 519 kts 125°
2026-05-05 04:27 44.19988 -91.40304 29778 ft 520 kts 124°
2026-05-05 04:27 44.18280 -91.35862 30017 ft 521 kts 124°
2026-05-05 04:28 44.16570 -91.31406 30250 ft 523 kts 124°
2026-05-05 04:28 44.14849 -91.26931 30478 ft 525 kts 124°
2026-05-05 04:28 44.13116 -91.22444 30695 ft 526 kts 125°
2026-05-05 04:28 44.11377 -91.17954 30904 ft 528 kts 125°
2026-05-05 04:29 44.09631 -91.13462 31204 ft 527 kts 124°
2026-05-05 04:29 44.07890 -91.08990 31525 ft 526 kts 125°
2026-05-05 04:29 44.06146 -91.04516 31820 ft 525 kts 125°
2026-05-05 04:29 44.04409 -91.00057 32115 ft 525 kts 125°
2026-05-05 04:30 44.02669 -90.95591 32402 ft 524 kts 125°
2026-05-05 04:30 44.00931 -90.91146 32668 ft 523 kts 124°
2026-05-05 04:30 43.99194 -90.86711 32981 ft 523 kts 124°
2026-05-05 04:30 43.97459 -90.82283 33267 ft 522 kts 124°
2026-05-05 04:31 43.95723 -90.77857 33561 ft 522 kts 124°
2026-05-05 04:31 43.93984 -90.73439 33836 ft 521 kts 124°
2026-05-05 04:31 43.92248 -90.69035 34122 ft 519 kts 124°
2026-05-05 04:31 43.90516 -90.64647 34398 ft 518 kts 124°
2026-05-05 04:32 43.88788 -90.60271 34654 ft 517 kts 124°
2026-05-05 04:32 43.87063 -90.55905 34886 ft 516 kts 124°
2026-05-05 04:32 43.85343 -90.51556 35129 ft 515 kts 124°
2026-05-05 04:32 43.83639 -90.47266 35346 ft 514 kts 124°
2026-05-05 04:33 43.81892 -90.42887 35551 ft 512 kts 123°
2026-05-05 04:33 43.80173 -90.38581 35785 ft 511 kts 123°
2026-05-05 04:33 43.78455 -90.34279 36030 ft 509 kts 123°
2026-05-05 04:33 43.76745 -90.30005 36260 ft 507 kts 123°
2026-05-05 04:34 43.75056 -90.25793 36478 ft 506 kts 123°
2026-05-05 04:34 43.73351 -90.21541 36654 ft 506 kts 123°
2026-05-05 04:34 43.71624 -90.17240 36699 ft 504 kts 123°
2026-05-05 04:35 43.68244 -90.08839 36696 ft 503 kts 123°
2026-05-05 04:35 43.64837 -90.00401 36689 ft 503 kts 123°
2026-05-05 04:36 43.61437 -89.91999 36692 ft 500 kts 123°
2026-05-05 04:36 43.58049 -89.83625 36734 ft 499 kts 123°
2026-05-05 04:37 43.54764 -89.75182 36730 ft 503 kts 116°
2026-05-05 04:37 43.52182 -89.66205 36739 ft 504 kts 114°
2026-05-05 04:38 43.49611 -89.57227 36730 ft 504 kts 115°
2026-05-05 04:38 43.47034 -89.48249 36713 ft 504 kts 115°
2026-05-05 04:39 43.44452 -89.39282 36705 ft 504 kts 115°
2026-05-05 04:39 43.41857 -89.30325 36669 ft 504 kts 115°
2026-05-05 04:40 43.39254 -89.21382 36669 ft 503 kts 115°
2026-05-05 04:40 43.36652 -89.12468 36697 ft 502 kts 115°
2026-05-05 04:41 43.34048 -89.03586 36685 ft 501 kts 115°
2026-05-05 04:41 43.31445 -88.94724 36687 ft 500 kts 115°
2026-05-05 04:42 43.28837 -88.85876 36679 ft 500 kts 115°
2026-05-05 04:42 43.26230 -88.77051 36672 ft 499 kts 115°
2026-05-05 04:43 43.23620 -88.68251 36674 ft 498 kts 115°
2026-05-05 04:43 43.20999 -88.59470 36617 ft 497 kts 115°
2026-05-05 04:44 43.18396 -88.50762 36652 ft 496 kts 115°
2026-05-05 04:44 43.15778 -88.42014 36684 ft 496 kts 116°
2026-05-05 04:45 43.13153 -88.33293 36694 ft 495 kts 116°
2026-05-05 04:45 43.11143 -88.24269 36697 ft 499 kts 101°
2026-05-05 04:46 43.10156 -88.16433 36695 ft 499 kts 102°
2026-05-05 04:46 43.08941 -88.07082 36706 ft 499 kts 102°
2026-05-05 04:47 43.07709 -87.97746 36698 ft 499 kts 102°
2026-05-05 04:47 43.06469 -87.88404 36648 ft 499 kts 102°
2026-05-05 04:48 43.05236 -87.79135 36645 ft 499 kts 102°
2026-05-05 04:48 43.03986 -87.69799 36632 ft 499 kts 102°
2026-05-05 04:49 43.02739 -87.60482 36649 ft 498 kts 102°
2026-05-05 04:49 43.01482 -87.51174 36664 ft 498 kts 102°
2026-05-05 04:50 43.00220 -87.41878 36674 ft 497 kts 102°
2026-05-05 04:50 42.98950 -87.32589 36659 ft 497 kts 102°
2026-05-05 04:51 42.97670 -87.23330 36690 ft 495 kts 103°
2026-05-05 04:51 42.96384 -87.14098 36695 ft 494 kts 103°
2026-05-05 04:52 42.95098 -87.04889 36707 ft 494 kts 103°
2026-05-05 04:52 42.93808 -86.95692 36706 ft 493 kts 103°
2026-05-05 04:53 42.92519 -86.86568 36687 ft 493 kts 103°
2026-05-05 04:53 42.91222 -86.77383 36673 ft 493 kts 103°
2026-05-05 04:54 42.89909 -86.68214 36676 ft 493 kts 103°
2026-05-05 04:54 42.88588 -86.59052 36655 ft 492 kts 103°
2026-05-05 04:55 42.87264 -86.49894 36650 ft 492 kts 103°
2026-05-05 04:55 42.85923 -86.40756 36639 ft 492 kts 103°
2026-05-05 04:56 42.84584 -86.31620 36623 ft 491 kts 103°
2026-05-05 04:56 42.83240 -86.22481 36645 ft 491 kts 103°
2026-05-05 04:57 42.81898 -86.13365 36652 ft 491 kts 104°
2026-05-05 04:57 42.80545 -86.04255 36673 ft 490 kts 104°
2026-05-05 04:58 42.79177 -85.95155 36663 ft 490 kts 104°
2026-05-05 04:58 42.77804 -85.86073 36653 ft 490 kts 104°
2026-05-05 04:59 42.76431 -85.76986 36639 ft 490 kts 104°
2026-05-05 04:59 42.75057 -85.67908 36644 ft 490 kts 104°
2026-05-05 05:00 42.73668 -85.58847 36641 ft 488 kts 105°
2026-05-05 05:00 42.72974 -85.54352 36302 ft 484 kts 105°
2026-05-05 05:00 42.72281 -85.49869 35689 ft 483 kts 105°
2026-05-05 05:00 42.71590 -85.45405 35052 ft 483 kts 105°
2026-05-05 05:01 42.70898 -85.40947 34691 ft 481 kts 105°
2026-05-05 05:01 42.69510 -85.32067 34626 ft 480 kts 105°
2026-05-05 05:02 42.68105 -85.23190 34614 ft 480 kts 105°
2026-05-05 05:02 42.66418 -85.14512 34630 ft 477 kts 116°
2026-05-05 05:02 42.65169 -85.10335 34227 ft 476 kts 117°
2026-05-05 05:03 42.63924 -85.06214 34031 ft 469 kts 117°
2026-05-05 05:03 42.62687 -85.02135 33791 ft 465 kts 118°
2026-05-05 05:03 42.61459 -84.98093 33570 ft 461 kts 118°
2026-05-05 05:03 42.60237 -84.94081 33311 ft 459 kts 118°
2026-05-05 05:04 42.59016 -84.90081 33089 ft 457 kts 118°
2026-05-05 05:04 42.57804 -84.86104 32864 ft 456 kts 118°
2026-05-05 05:04 42.56592 -84.82136 32630 ft 454 kts 118°
2026-05-05 05:04 42.55380 -84.78187 32407 ft 453 kts 118°
2026-05-05 05:05 42.54154 -84.74254 32175 ft 451 kts 120°
2026-05-05 05:05 42.52845 -84.70410 31947 ft 448 kts 122°
2026-05-05 05:05 42.51461 -84.66643 31716 ft 445 kts 123°
2026-05-05 05:05 42.50035 -84.62929 31490 ft 444 kts 124°
2026-05-05 05:06 42.48596 -84.59234 31243 ft 443 kts 123°
2026-05-05 05:06 42.47173 -84.55561 31050 ft 440 kts 123°
2026-05-05 05:06 42.45773 -84.51891 30822 ft 438 kts 123°
2026-05-05 05:06 42.44390 -84.48213 30606 ft 437 kts 122°
2026-05-05 05:07 42.43022 -84.44541 30383 ft 436 kts 122°
2026-05-05 05:07 42.41665 -84.40882 30160 ft 435 kts 122°
2026-05-05 05:07 42.40308 -84.37227 29916 ft 433 kts 122°
2026-05-05 05:07 42.38950 -84.33593 29700 ft 432 kts 122°
2026-05-05 05:08 42.37590 -84.29973 29465 ft 431 kts 122°
2026-05-05 05:08 42.36233 -84.26377 29250 ft 428 kts 122°
2026-05-05 05:08 42.34881 -84.22798 29035 ft 426 kts 122°
2026-05-05 05:08 42.33539 -84.19239 28826 ft 425 kts 122°
2026-05-05 05:09 42.32196 -84.15681 28602 ft 424 kts 122°
2026-05-05 05:09 42.30859 -84.12143 28410 ft 423 kts 122°
2026-05-05 05:09 42.29521 -84.08613 28199 ft 421 kts 123°
2026-05-05 05:09 42.28187 -84.05099 27998 ft 420 kts 123°
2026-05-05 05:10 42.26855 -84.01594 27787 ft 419 kts 123°
2026-05-05 05:10 42.25524 -83.98095 27584 ft 418 kts 123°
2026-05-05 05:10 42.24197 -83.94612 27366 ft 416 kts 122°
2026-05-05 05:10 42.22878 -83.91147 27169 ft 414 kts 122°
2026-05-05 05:11 42.21567 -83.87707 26969 ft 411 kts 122°
2026-05-05 05:11 42.20259 -83.84285 26760 ft 410 kts 122°
2026-05-05 05:11 42.18953 -83.80871 26554 ft 409 kts 122°
2026-05-05 05:11 42.17652 -83.77473 26313 ft 408 kts 122°
2026-05-05 05:12 42.16368 -83.74125 26118 ft 407 kts 122°
2026-05-05 05:12 42.15069 -83.70744 25912 ft 406 kts 122°
2026-05-05 05:12 42.13773 -83.67377 25707 ft 405 kts 122°
2026-05-05 05:12 42.12478 -83.64009 25503 ft 404 kts 122°
2026-05-05 05:13 42.11191 -83.60658 25297 ft 403 kts 122°
2026-05-05 05:13 42.09904 -83.57306 25105 ft 402 kts 122°
2026-05-05 05:13 42.08621 -83.53969 24901 ft 401 kts 122°
2026-05-05 05:13 42.07341 -83.50641 24699 ft 399 kts 121°
2026-05-05 05:14 42.06072 -83.47339 24501 ft 397 kts 121°
2026-05-05 05:14 42.04807 -83.44051 24296 ft 395 kts 121°
2026-05-05 05:14 42.03542 -83.40774 24149 ft 394 kts 121°
2026-05-05 05:14 42.02280 -83.37512 23949 ft 393 kts 121°
2026-05-05 05:15 42.01183 -83.34136 23747 ft 395 kts 111°
2026-05-05 05:15 42.00531 -83.30528 23335 ft 401 kts 100°
2026-05-05 05:15 42.00243 -83.26792 22811 ft 400 kts 97°
2026-05-05 05:15 41.99978 -83.23088 22297 ft 399 kts 98°
2026-05-05 05:16 41.99708 -83.19399 21907 ft 394 kts 98°
2026-05-05 05:16 41.99436 -83.15734 21428 ft 393 kts 98°
2026-05-05 05:16 41.99163 -83.12105 21056 ft 388 kts 98°
2026-05-05 05:16 41.98890 -83.08506 20612 ft 386 kts 99°
2026-05-05 05:17 41.98613 -83.04932 20189 ft 384 kts 99°
2026-05-05 05:17 41.98334 -83.01376 19779 ft 382 kts 99°
2026-05-05 05:17 41.98052 -82.97839 19374 ft 379 kts 99°
2026-05-05 05:17 41.97772 -82.94321 18975 ft 377 kts 99°
2026-05-05 05:18 41.97494 -82.90820 18583 ft 375 kts 99°
2026-05-05 05:18 41.97217 -82.87345 18207 ft 374 kts 100°
2026-05-05 05:18 41.96939 -82.83883 17808 ft 372 kts 100°
2026-05-05 05:18 41.96665 -82.80486 17400 ft 370 kts 100°
2026-05-05 05:19 41.96288 -82.77096 16977 ft 364 kts 107°
2026-05-05 05:19 41.95647 -82.73820 16564 ft 362 kts 109°
2026-05-05 05:19 41.94999 -82.70566 16180 ft 360 kts 109°
2026-05-05 05:19 41.94356 -82.67329 15803 ft 358 kts 109°
2026-05-05 05:20 41.93718 -82.64115 15437 ft 356 kts 109°
2026-05-05 05:20 41.93081 -82.60905 15075 ft 354 kts 109°
2026-05-05 05:20 41.92452 -82.57721 14719 ft 352 kts 109°
2026-05-05 05:20 41.91828 -82.54558 14376 ft 350 kts 109°
2026-05-05 05:21 41.91208 -82.51407 14027 ft 348 kts 109°
2026-05-05 05:21 41.90589 -82.48272 13684 ft 346 kts 109°
2026-05-05 05:21 41.89971 -82.45156 13328 ft 345 kts 109°
2026-05-05 05:21 41.89354 -82.42058 12938 ft 343 kts 109°
2026-05-05 05:22 41.88741 -82.38972 12539 ft 342 kts 109°
2026-05-05 05:22 41.88133 -82.35891 12173 ft 340 kts 109°
2026-05-05 05:22 41.87533 -82.32845 11926 ft 337 kts 109°
2026-05-05 05:22 41.86934 -82.29817 11677 ft 335 kts 109°
2026-05-05 05:23 41.86335 -82.26797 11429 ft 334 kts 109°
2026-05-05 05:23 41.85739 -82.23784 11179 ft 334 kts 110°
2026-05-05 05:23 41.84963 -82.20884 10930 ft 328 kts 121°
2026-05-05 05:23 41.83857 -82.18246 10620 ft 323 kts 128°
2026-05-05 05:24 41.82679 -82.15693 10312 ft 322 kts 128°
2026-05-05 05:24 41.81509 -82.13145 10005 ft 319 kts 127°
2026-05-05 05:24 41.80357 -82.10625 9706 ft 316 kts 127°
2026-05-05 05:24 41.79212 -82.08118 9395 ft 314 kts 127°
2026-05-05 05:25 41.78072 -82.05623 9093 ft 313 kts 128°
2026-05-05 05:25 41.76934 -82.03138 8779 ft 312 kts 128°
2026-05-05 05:25 41.75801 -82.00663 8499 ft 311 kts 128°
2026-05-05 05:25 41.74668 -81.98199 8208 ft 310 kts 128°
2026-05-05 05:26 41.73538 -81.95740 7918 ft 309 kts 128°
2026-05-05 05:26 41.72412 -81.93294 7622 ft 308 kts 129°
2026-05-05 05:26 41.71288 -81.90856 7332 ft 307 kts 129°
2026-05-05 05:26 41.70155 -81.88448 7065 ft 304 kts 130°
2026-05-05 05:27 41.69013 -81.86063 6985 ft 304 kts 130°
2026-05-05 05:27 41.67879 -81.83687 6544 ft 303 kts 130°
2026-05-05 05:27 41.65762 -81.79110 5897 ft 274 kts 130°
2026-05-05 05:28 41.64779 -81.76994 5606 ft 264 kts 131°
2026-05-05 05:28 41.63803 -81.74937 5327 ft 260 kts 133°
2026-05-05 05:28 41.62653 -81.73192 5066 ft 238 kts 153°
2026-05-05 05:28 41.61326 -81.72105 4853 ft 210 kts 171°
2026-05-05 05:29 41.59996 -81.71572 4714 ft 193 kts 182°
2026-05-05 05:29 41.58682 -81.71216 4577 ft 192 kts 182°
2026-05-05 05:29 41.57419 -81.70860 4469 ft 177 kts 182°
2026-05-05 05:29 41.56220 -81.70525 4309 ft 183 kts 183°
2026-05-05 05:30 41.54965 -81.70194 4164 ft 188 kts 182°
2026-05-05 05:30 41.53701 -81.70005 4015 ft 176 kts 197°
2026-05-05 05:30 41.52571 -81.70418 3838 ft 162 kts 215°
2026-05-05 05:30 41.51628 -81.71137 3611 ft 152 kts 218°
2026-05-05 05:31 41.50735 -81.71825 3406 ft 144 kts 217°
2026-05-05 05:31 41.49887 -81.72477 3216 ft 137 kts 217°
2026-05-05 05:31 41.49079 -81.73115 3035 ft 132 kts 223°
2026-05-05 05:31 41.48484 -81.74003 2867 ft 131 kts 231°
2026-05-05 05:32 41.47874 -81.74917 2684 ft 132 kts 233°
2026-05-05 05:32 41.47262 -81.75827 2537 ft 134 kts 225°
2026-05-05 05:32 41.46618 -81.76720 2307 ft 132 kts 228°
2026-05-05 05:32 41.46054 -81.77678 2197 ft 133 kts 227°
2026-05-05 05:33 41.45475 -81.78646 1952 ft 134 kts 225°
2026-05-05 05:33 41.44888 -81.79593 1802 ft 132 kts 227°
2026-05-05 05:33 41.44299 -81.80539 1624 ft 135 kts 221°
2026-05-05 05:33 41.43874 -81.81149 1430 ft 136 kts 221°
2026-05-05 05:34 41.43279 -81.82120 1282 ft 135 kts 221°
2026-05-05 05:34 41.42693 -81.83055 1144 ft 130 kts 221°
2026-05-05 05:34 41.42111 -81.84011 1046 ft 136 kts 220°
2026-05-05 05:34 41.41517 -81.84954 845 ft 131 kts 227°
2026-05-05 05:35 41.40950 -81.85795 787 ft 103 kts 228°
2026-05-05 05:35 41.40613 -81.86353 783 ft 53 kts 229°
2026-05-05 05:35 41.40428 -81.86620 777 ft 32 kts 215°
2026-05-05 05:35 41.40307 -81.86665 773 ft 1 kts 185°
2026-05-05 05:36 41.40302 -81.86666 773 ft 0 kts 185°